Flag Weather past 2 weeks in Concord, California, U.S.A.

Now
61 °F

Passing clouds.


Feels Like: 61 °F
Forecast: 43 / 64 °F
Wind: 5 mph from East

Location: Buchanan Field

Current Time: Nov 23, 2014 at 5:22:30 PM

Latest Report: Nov 23, 2014 at 4:53 PM


Visibility: 10 mi

Pressure: 30.24 "Hg

Humidity: 41%

Dew point: 37 °F

Location of ConcordLocation

Historic Weather in Concord — Graph

°F

Concord temperature yesterday

Maximum temperature yesterday: 68 °F (at 1:53 PM)
Minimum temperature yesterday: 50 °F (at 10:53 PM)
Average temperature yesterday: 60 °F

Past Weeks' High & Low Weather Summary

 TemperatureHumidityPressure
High77 °F (Nov 8, 3:53 PM)100% (Nov 13, 7:53 AM)30.31 "Hg (Nov 13, 7:53 AM)
Low42 °F (Nov 17, 3:53 AM)19% (Nov 16, 11:53 AM)29.73 "Hg (Nov 10, 4:53 PM)
Average57 °F73%30.02 "Hg
* Reported Nov 8 3:53 PM — Nov 23 3:53 PM, Concord, Weather by CustomWeather, © 2014

Note: Actual official high and low records may vary slightly from our data, if they occured in-between our weather recording intervals... More about our weather records

Advertising

Concord weather history for previous 24 hours

 ConditionsComfort  
Time TempWeatherWind HumidityBarometerVisibility
3:53 PM
Nov 23
64 °FSunny.8 mph35%30.24 "Hg10 mi
2:53 PM65 °FSunny.6 mph34%30.23 "Hg10 mi
1:53 PM66 °FSunny.No wind33%30.24 "Hg10 mi
12:53 PM64 °FSunny.No wind35%30.24 "Hg10 mi
11:53 AM64 °FSunny.5 mph35%30.27 "Hg10 mi
10:53 AM63 °FSunny.3 mph40%30.30 "Hg10 mi
9:53 AM59 °FSunny.No wind54%30.31 "Hg10 mi
8:53 AM50 °FSunny.3 mph86%30.28 "Hg10 mi
7:53 AM46 °FSunny.5 mph93%30.27 "Hg8 mi
6:53 AM43 °FFog.3 mph97%30.27 "Hg6 mi
5:53 AM43 °FFog.3 mph97%30.26 "Hg3 mi
4:53 AM45 °FFog.3 mph93%30.26 "Hg3 mi
3:53 AM44 °FClear.No wind96%30.24 "Hg8 mi
2:53 AM45 °FFog.No wind97%30.23 "Hg0 mi
1:53 AM47 °FFog.No wind97%30.22 "Hg0 mi
12:59 AM48 °FFog.No wind96%30.26 "Hg2 mi
11:53 PM
Nov 22
50 °FFog.No wind96%30.22 "Hg4 mi
10:53 PM50 °FFog.3 mph96%30.22 "Hg1 mi
10:00 PM52 °FFog.3 mph97%30.24 "Hg2 mi
8:53 PM55 °FFog.6 mph93%30.18 "Hg5 mi
7:53 PM57 °FClear.No wind74%30.16 "Hg10 mi
6:53 PM59 °FClear.6 mph64%30.14 "Hg10 mi
5:53 PM62 °FClear.6 mph62%30.10 "Hg10 mi
Weather by CustomWeather, © 2014

See weather overviewHow to use our weather pages